#timestamp,LO_Frequency,Hit,StdDev 
1508508015.5,286047002.1,N
1508508035.3,286047003.7,N
1508508055.2,286047004.3,N
1508508075.0,286047006.3,N
1508508075.9,286047006.3,N
1508508095.7,286047004.9,N
1508508115.6,286047002.8,N
1508508135.4,286047001.6,N
1508508155.2,286047000.2,N
1508508175.1,286047000.6,N
1508508176.0,286047000.6,N
1508508195.8,286047003.1,N
1508508215.6,286047002.8,N
1508508235.5,286046999.1,N
1508508255.3,286046995.0,N
1508508275.1,286046998.5,N
1508508295.9,286046999.7,N
1508508315.7,286046999.5,N
1508508335.5,286046999.1,N
1508508355.4,286047000.1,N
1508508375.2,286047002.7,N
1508508395.0,286047001.6,N
1508508395.9,286047001.6,N
1508508415.8,286047002.0,N
1508508435.6,286046999.2,N
1508508455.4,286046996.7,N
1508508475.3,286046998.3,N
1508508495.1,286047000.3,N
1508508496.0,286047000.3,N
1508508515.8,286047000.0,N
1508508535.7,286047000.6,N
1508508555.5,286047000.4,N
1508508575.3,286047001.2,N
1508508595.2,286046998.6,N
1508508615.9,286047001.2,N
1508508635.7,286046999.7,N
1508508655.6,286046995.6,N
1508508675.4,286046995.6,N
1508508695.2,286046997.7,N
1508508715.0,286047002.5,N
1508508716.0,286047002.5,N
1508508735.8,286046999.9,N
1508508755.6,286046998.6,N
1508508775.4,286047002.2,N
1508508795.3,286047003.3,N
1508508815.1,286047000.2,N
1508508835.8,286047002.2,N
1508508855.7,286047002.6,N
1508508875.5,286047002.4,N
1508508895.3,286047002.6,N
1508508915.2,286047002.7,N
1508508935.9,286046999.2,N
1508508955.7,286046998.8,N
1508508975.6,286046993.5,Y
1508508995.4,286046997.8,P
1508509015.2,286046998.3,N
1508509035.1,286046996.9,N
1508509036.0,286046996.9,N
1508509055.8,286046998.9,N
1508509075.6,286047001.2,N
1508509095.5,286046999.1,N
1508509115.3,286046997.7,N
1508509135.1,286046994.2,Y
1508509155.9,286046996.3,P
1508509175.7,286046994.1,P
1508509195.5,286046995.7,N
1508509215.4,286046997.2,N
1508509235.2,286046996.4,N
1508509255.0,286046997.6,N
1508509255.9,286046997.6,N
1508509275.8,286046995.3,Y
1508509295.6,286046997.0,P
1508509315.4,286046998.0,P
1508509335.3,286046998.3,P
1508509355.1,286047000.1,N
1508509356.0,286047000.1,N
1508509375.8,286047001.2,N
1508509395.7,286046997.9,N
1508509415.5,286046999.1,N
1508509435.3,286046998.2,N
1508509455.2,286047002.2,N
1508509475.9,286047006.8,Y
1508509495.7,286047004.3,P
1508509515.6,286047002.0,N
1508509535.4,286046998.3,N
1508509555.2,286047000.6,N
1508509575.1,286047002.9,N
1508509576.0,286047002.9,N
1508509595.8,286047002.7,N
1508509615.6,286046999.3,N
1508509635.5,286046999.0,N
1508509655.3,286046999.5,N
1508509675.1,286047001.7,N
1508509695.9,286047006.4,Y
1508509715.7,286047004.2,P
1508509735.5,286047003.1,N
1508509755.4,286047002.0,N
1508509775.2,286047004.9,Y
1508509795.0,286047000.9,P
1508509795.9,286047000.9,N
1508509815.8,286047004.4,P
1508509835.6,286047000.7,N
1508509855.4,286046999.9,N
1508509875.3,286047000.6,N
1508509895.1,286047002.2,N
1508509896.0,286047002.2,N
1508509915.8,286047004.4,Y
1508509935.7,286046998.8,P
1508509955.5,286046999.6,N
1508509975.3,286046999.5,N
1508509995.2,286046998.7,N
1508510015.9,286047000.0,N
1508510035.7,286046997.2,N
1508510055.6,286046999.1,N
1508510075.4,286047004.3,Y
1508510095.2,286047000.3,P
1508510115.1,286047000.5,N
1508510116.0,286047000.5,N
1508510135.8,286046997.3,Y
1508510155.6,286046999.4,P
1508510175.5,286047004.0,P
1508510195.3,286047005.5,N
1508510215.1,286047005.6,N
1508510235.9,286047003.1,N
1508510255.7,286047004.2,N
1508510275.5,286047003.3,N
1508510295.4,286047001.7,N
1508510315.2,286047006.0,N
1508510335.0,286047004.3,N
1508510335.9,286047004.3,N
1508510355.8,286047003.9,N
1508510375.6,286047001.6,N
1508510395.4,286047000.4,N
1508510415.2,286047005.6,N
1508510435.1,286047001.8,N
1508510436.0,286047001.8,N
1508510455.8,286047003.0,N
1508510475.6,286047003.6,N
1508510495.5,286047003.9,N
1508510515.3,286047003.1,N
1508510535.1,286047000.2,N
1508510555.9,286046996.5,N
1508510575.7,286046999.0,N
1508510595.5,286047002.4,N
1508510615.4,286047004.1,N
1508510635.2,286047005.7,N
1508510655.0,286047006.0,N
1508510655.9,286047006.0,N
1508510675.8,286047010.3,Y
1508510695.6,286047007.4,P
1508510715.4,286047008.9,P
1508510735.3,286047007.0,N
1508510755.1,286047010.5,Y
1508510775.8,286047001.3,P
1508510795.7,286046998.5,N
1508510815.5,286047001.0,N
1508510835.3,286047003.1,N
1508510855.2,286047004.5,N
1508510875.9,286047002.0,N
1508510895.7,286047004.0,N
1508510915.6,286047001.3,N
1508510935.4,286047002.0,N
1508510955.2,286046998.1,N
1508510975.1,286046999.3,N
1508510976.0,286046999.3,N
1508510995.8,286046995.6,N
1508511015.6,286046995.6,N
1508511035.5,286046993.7,N
1508511055.3,286046992.7,N
1508511075.1,286046991.5,N
1508511095.9,286046986.9,Y
1508511115.7,286046988.2,P
1508511135.5,286046989.1,N
1508511155.4,286046988.5,N
1508511175.2,286046994.6,N
1508511195.0,286046992.2,N
1508511195.9,286046992.2,N
1508511215.8,286046995.7,N
1508511235.6,286046994.2,N
1508511255.4,286046994.6,N
1508511275.3,286046993.5,N
1508511295.1,286046999.6,N
1508511296.0,286046999.6,N
1508511315.8,286046994.9,N
1508511335.7,286046996.6,N
1508511355.5,286046996.5,N
1508511375.3,286047002.5,N
1508511395.2,286047001.5,N
1508511415.9,286047000.9,N
1508511435.7,286046999.7,N
1508511455.5,286047001.8,N
1508511475.4,286047004.1,N
1508511495.2,286047004.0,N
1508511515.0,286047003.7,N
1508511515.9,286047003.7,N
1508511535.8,286047004.5,N
1508511555.6,286047007.2,N
1508511575.4,286047003.5,N
1508511595.3,286047004.6,N
